Wetbulb
45.48 41.40 38.81 40.07 41.53 42.17 45.08 43.02 42.92 45.70 46.75 46.80 45.82 46.14 47.23 49.34 49.13 51.46 54.93 55.69 56.62 56.99 58.25 60.35 60.51 61.47 60.75 60.79 61.00 61.45 62.05 60.64 59.86 59.40 57.47 54.67 51.48 48.71 46.64 46.01 46.19 46.41 46.77 47.38
40.79 36.79 41.56 43.29 42.50 40.91 41.11 42.29 42.03 45.10 46.59 45.64 45.24 44.75 47.26 47.50 48.77 50.64 54.81 55.16 56.30 55.08 51.77 51.50 51.14 50.65 51.32 51.65 53.33 55.18 56.63 58.32 58.38 57.58 54.83 52.66 48.72 45.18 43.97 43.39 42.82 43.45 43.74 43.97
37.50 39.63 42.98 40.20 38.21 36.68 38.27 41.80 42.41 42.84 45.01 46.09 44.52 42.77 45.59 47.89 49.42 49.69 54.23 56.29 56.60 53.88 50.21 47.73 46.68 45.77 45.33 45.14 46.39 49.88 51.69 53.58 53.74 53.31 51.27 48.61 46.79 44.09 41.13 40.45 40.03 40.68 41.66 41.88
38.22 43.26 41.07 39.07 36.12 36.02 35.51 44.81 45.19 43.04 42.22 37.61 44.69 35.94 43.03 46.68 46.19 47.04 53.64 54.90 52.36 48.96 48.12 47.20 44.50 42.92 42.20 42.03 43.30 44.83 46.63 48.63 49.15 52.34 51.32 48.04 43.27 38.74 39.31 39.55 39.79 39.31 39.81 39.78
34.89 39.80 39.59 37.87 37.67 39.32 35.71 39.98 44.04 43.90 41.96 40.76 40.69 37.07 40.02 45.68 44.34 44.41 50.88 50.08 49.23 47.96 47.02 44.83 41.96 41.92 41.35 41.51 41.66 42.94 43.16 43.43 44.90 44.28 43.65 41.52 39.42 39.23 39.75 39.55 38.70 38.37 38.14 38.44
37.78 44.12 41.36 40.09 41.47 40.54 40.47 40.00 43.67 42.75 39.76 32.94 38.80 38.17 37.97 41.46 43.92 45.08 47.49 46.86 46.46 44.98 44.75 43.23 42.70 41.91 40.96 41.61 41.92 42.01 41.23 41.23 42.48 41.56 41.55 39.99 39.19 39.88 39.76 39.37 38.24 37.49 37.10 37.13
35.99 37.96 42.71 43.08 38.45 40.59 37.49 33.10 29.87 28.92 29.57 30.35 39.80 37.36 39.07 41.97 42.46 46.97 46.16 42.77 41.68 40.83 40.10 40.87 40.33 40.35 40.42 40.49 40.78 41.69 41.07 40.75 41.57 41.73 41.08 41.63 42.24 41.76 40.34 39.40 38.17 36.12 35.40 35.48
26.53 26.06 37.90 43.15 39.48 36.22 35.39 32.13 30.70 25.89 27.45 30.20 38.09 32.54 38.26 41.66 46.95 48.19 44.67 40.70 39.54 39.05 39.46 38.25 38.09 38.84 39.76 40.64 41.59 42.16 42.14 41.52 41.38 41.21 40.44 40.56 40.16 39.38 38.13 36.43 36.40 35.54 33.65 33.37
23.55 28.74 40.24 41.85 43.08 40.72 36.95 32.67 37.40 31.69 29.73 30.36 33.16 36.04 38.62 40.66 41.20 40.32 38.58 38.06 36.82 37.07 37.25 37.34 38.33 39.82 41.05 41.44 41.26 41.02 40.31 39.63 39.48 39.25 38.97 37.84 37.28 36.59 35.57 33.92 33.09 32.56 32.85 32.99
34.94 26.50 36.04 38.94 42.31 42.91 39.36 40.84 31.64 32.04 25.93 24.63 30.51 32.52 34.32 35.80 37.91 37.30 36.15 36.06 35.95 36.59 37.00 38.32 39.74 40.75 40.68 40.26 40.02 39.78 39.14 37.68 36.54 35.87 34.98 33.63 33.00 32.67 32.37 31.95 30.84 30.83 31.22 31.60
36.00 33.65 31.09 36.27 34.88 35.31 37.17 35.86 35.91 35.47 31.92 26.29 27.19 30.77 34.36 37.49 39.10 37.60 36.18 36.31 35.52 36.02 37.50 38.98 40.04 39.86 38.83 38.31 37.67 36.63 35.43 33.92 33.09 32.88 32.02 31.19 30.95 30.67 30.42 29.67 29.49 29.76 30.23 30.13
37.36 33.33 29.59 31.81 36.36 37.76 37.17 36.39 36.99 30.50 29.52 30.37 29.10 29.71 35.40 34.82 39.15 39.63 36.28 35.97 36.73 37.87 38.60 39.52 38.71 37.14 36.46 35.82 34.18 33.27 33.06 32.38 31.92 30.63 30.14 29.17 29.04 28.55 27.92 27.82 28.05 28.46 27.56 28.09
37.48 31.55 26.38 28.03 31.31 34.83 34.53 35.34 36.88 35.58 33.11 28.69 27.64 29.07 36.06 37.81 38.07 38.51 35.08 36.14 37.46 38.67 38.80 38.13 37.08 36.57 35.64 34.00 32.61 31.92 31.54 30.74 29.84 29.24 28.31 27.72 26.77 26.69 26.08 26.38 26.88 27.12 26.39 26.47
39.74 33.13 29.07 23.43 28.06 31.66 30.95 33.79 34.74 34.24 28.39 29.10 30.11 29.81 32.74 35.34 36.10 35.82 35.53 37.02 38.52 38.44 38.30 37.81 36.90 36.50 35.53 32.92 31.28 30.50 29.79 28.84 28.26 27.46 26.05 25.75 25.56 25.44 25.51 25.87 25.78 25.39 25.23 24.44
37.33 28.29 32.22 33.05 33.53 33.81 32.13 32.00 33.02 32.39 33.00 29.43 31.66 31.17 33.51 36.04 36.72 36.37 36.92 37.89 37.32 36.85 37.93 37.73 36.54 34.66 32.27 30.58 29.76 29.42 27.77 27.40 27.12 26.03 24.92 24.68 25.02 24.61 24.51 24.52 24.30 24.44 24.20 23.73
36.50 29.57 31.30 28.07 30.68 31.53 31.00 34.13 33.07 33.39 34.00 33.87 33.84 33.49 37.34 35.24 37.85 36.90 37.55 38.07 37.14 37.37 38.44 38.50 36.51 32.67 30.35 29.70 28.25 27.43 26.36 25.71 25.67 24.47 23.95 24.77 24.52 24.42 24.01 23.78 23.68 23.64 23.24 23.15
32.00 25.41 19.48 15.42 26.33 25.55 18.78 28.73 32.44 33.20 35.04 34.65 30.82 35.03 35.52 33.53 37.19 37.70 38.01 38.44 38.43 38.41 38.51 38.55 35.08 32.14 30.74 29.02 28.41 26.01 25.44 25.40 24.29 24.24 24.36 24.27 23.91 23.31 23.10 23.21 22.86 22.40 21.50 21.73
31.80 30.44 30.28 14.65 15.58 17.14 26.82 30.24 32.93 33.20 34.60 36.55 36.30 37.23 36.68 37.26 36.90 39.84 40.29 39.51 39.22 39.48 39.08 38.50 33.80 32.55 30.98 28.83 27.04 25.98 25.16 24.55 24.26 23.61 23.61 23.72 23.32 22.72 22.15 21.54 20.94 20.28 20.46 20.21
34.83 31.83 23.41 16.20 22.30 22.24 25.42 27.27 30.47 30.76 30.91 36.14 36.23 37.41 34.70 36.27 37.14 35.99 40.67 41.42 40.88 40.68 40.57 38.81 34.18 32.41 30.30 27.76 25.98 25.51 24.51 24.08 23.49 22.89 22.91 23.07 22.98 21.95 21.11 20.37 19.29 19.25 19.31 19.45
33.49 34.09 28.59 23.27 18.13 11.34 25.22 28.19 31.99 33.31 24.03 30.00 32.01 35.95 34.55 34.78 32.43 33.90 39.44 40.47 39.84 40.71 40.34 34.83 32.01 30.30 29.07 25.86 25.99 25.20 23.97 23.05 22.33 22.64 22.59 23.05 22.54 21.56 20.03 19.41 19.10 19.73 19.08 20.51
25.01 29.21 20.26 22.30 12.78 17.42 27.39 29.36 32.09 20.42 25.01 28.81 29.74 31.60 33.75 33.27 34.96 35.91 37.09 38.30 38.55 37.62 31.47 29.96 29.57 29.28 28.35 27.35 26.70 25.02 23.71 21.97 22.93 22.53 22.32 21.12 20.47 19.93 19.06 18.46 18.63 18.31 17.88 18.94
21.23 21.52 21.55 14.62 10.72 14.81 28.96 30.29 28.05 30.55 28.98 29.19 29.01 29.62 31.76 32.41 32.83 33.36 33.33 33.43 31.08 28.29 28.03 27.84 27.66 27.55 27.18 26.85 26.44 23.95 23.34 22.42 21.68 21.37 19.73 18.33 16.94 18.86 18.93 16.27 17.52 17.73 17.21 16.51
20.02 25.88 21.44 23.65 24.73 30.03 29.74 30.07 31.54 31.03 30.44 29.48 29.89 30.29 30.74 31.30 31.22 30.52 30.02 27.44 26.32 25.99 25.79 25.94 25.50 25.38 25.50 25.50 25.77 23.08 21.73 20.20 19.21 18.30 16.72 13.81 14.55 17.86 17.92 15.57 16.26 14.42 15.45 14.46
22.42 24.80 23.44 25.94 28.62 28.88 30.36 29.66 30.66 31.14 31.22 30.57 30.50 29.82 29.79 29.93 30.06 28.68 26.56 25.65 24.45 23.35 22.73 21.42 23.11 23.49 22.54 23.36 22.41 22.08 19.73 18.91 18.29 15.98 12.62 12.87 12.61 13.24 13.54 16.70 16.52 13.67 11.74 11.69
20.48 22.36 18.84 21.45 27.35 27.87 29.81 28.72 30.27 29.94 29.62 29.43 29.61 29.74 29.88 29.72 29.00 27.81 25.78 24.15 22.90 21.47 20.05 20.98 23.64 23.55 22.02 19.51 19.04 17.37 17.84 16.31 13.61 11.72 12.40 13.53 13.27 11.89 12.12 13.56 12.39 14.66 14.79 15.20
19.90 20.68 21.27 21.72 26.35 28.41 28.72 25.98 27.38 27.41 28.22 28.77 28.32 27.81 28.68 30.00 28.62 26.76 24.37 23.26 21.42 19.81 18.22 17.88 16.12 17.48 15.38 16.19 15.35 13.68 13.50 12.03 11.27 11.37 11.86 11.56 11.50 9.49 11.17 10.80 10.25 17.47 19.17 20.30
MSLP
1016.78 1016.76 1015.38 1015.07 1016.36 1015.59 1014.30 1014.07 1013.71 1013.90 1013.74 1014.10 1014.09 1014.35 1013.83 1013.88 1014.36 1015.02 1015.51 1016.05 1016.35 1016.88 1017.39 1017.40 1017.77 1018.39 1018.84 1019.28 1019.74 1020.01 1020.35 1020.66 1021.14 1021.97 1022.75 1023.49 1024.32 1024.97 1025.21 1025.37 1025.53 1025.45 1025.46 1025.50
1016.72 1015.97 1016.22 1015.91 1016.37 1016.47 1015.48 1013.87 1013.81 1014.03 1014.04 1014.23 1014.55 1014.42 1013.81 1014.12 1014.04 1014.41 1014.90 1015.67 1016.45 1017.39 1018.09 1018.67 1019.07 1019.54 1020.04 1020.31 1020.55 1020.82 1021.03 1021.17 1021.41 1021.91 1022.87 1023.61 1024.66 1025.51 1025.95 1026.27 1026.32 1026.33 1026.17 1026.22
1016.11 1015.30 1015.61 1016.37 1016.14 1016.93 1015.54 1013.73 1013.33 1013.77 1014.13 1014.49 1014.61 1014.80 1014.35 1013.85 1014.08 1014.38 1014.71 1015.19 1016.41 1017.28 1018.39 1019.39 1020.05 1020.62 1021.01 1021.39 1021.53 1021.86 1022.02 1021.96 1022.10 1022.46 1023.14 1024.14 1025.14 1025.88 1026.44 1026.97 1027.06 1027.47 1027.17 1027.13
1016.30 1015.46 1015.32 1016.50 1015.95 1017.32 1015.23 1013.71 1013.37 1013.45 1013.83 1014.17 1013.86 1013.91 1014.17 1014.21 1014.25 1014.51 1015.15 1015.93 1017.26 1018.38 1019.66 1020.23 1020.77 1021.62 1022.06 1022.49 1022.52 1022.81 1022.92 1022.91 1023.01 1023.04 1023.77 1024.40 1025.31 1026.28 1027.31 1027.91 1027.77 1027.94 1027.83 1027.78
1015.78 1015.44 1015.47 1015.41 1016.05 1017.01 1016.27 1014.87 1013.59 1013.36 1013.75 1014.03 1014.21 1014.36 1013.57 1014.14 1014.50 1015.24 1016.27 1017.02 1018.09 1019.14 1020.24 1020.99 1021.67 1022.03 1022.84 1023.23 1023.49 1023.65 1023.71 1023.87 1023.95 1024.21 1024.90 1025.25 1026.48 1027.26 1027.56 1028.43 1027.91 1029.32 1028.37 1029.00
1015.37 1014.80 1015.10 1015.65 1015.80 1016.48 1016.82 1014.87 1013.65 1013.55 1013.68 1013.68 1013.36 1013.66 1013.83 1013.77 1013.98 1015.45 1016.90 1018.25 1018.42 1019.53 1020.97 1021.69 1022.41 1023.05 1023.30 1023.80 1024.27 1024.43 1024.46 1024.87 1025.08 1025.17 1025.80 1025.73 1027.09 1027.65 1028.72 1028.21 1029.12 1029.33 1029.19 1029.65
1015.93 1015.43 1015.09 1014.96 1015.56 1016.21 1016.83 1016.27 1014.80 1014.50 1014.04 1013.47 1013.67 1014.55 1014.08 1014.01 1014.01 1014.46 1016.38 1018.57 1019.82 1019.71 1021.47 1022.14 1022.83 1023.51 1023.98 1024.27 1024.73 1025.00 1025.20 1025.58 1026.12 1026.77 1026.49 1027.01 1027.77 1027.44 1028.20 1028.59 1029.53 1029.70 1030.21 1030.15
1016.65 1016.45 1015.38 1015.13 1014.97 1015.92 1016.39 1016.91 1015.43 1014.50 1014.07 1014.08 1014.06 1014.49 1014.44 1014.69 1014.27 1014.66 1016.80 1018.79 1020.11 1021.06 1021.88 1022.60 1023.25 1023.85 1024.17 1024.59 1025.11 1025.51 1025.84 1026.51 1026.91 1027.41 1027.56 1028.25 1028.51 1028.75 1029.34 1029.55 1029.75 1030.35 1030.24 1030.48
1017.28 1016.59 1015.91 1015.35 1015.39 1015.33 1016.11 1016.73 1016.32 1015.45 1014.71 1014.18 1014.66 1015.18 1015.19 1015.70 1016.23 1017.03 1018.09 1019.43 1020.53 1021.91 1022.11 1022.97 1023.67 1023.98 1024.64 1025.18 1025.53 1026.01 1026.63 1027.11 1027.47 1027.94 1028.52 1028.62 1028.94 1029.39 1029.84 1030.17 1030.20 1030.40 1030.56 1030.46
1017.40 1016.89 1016.00 1015.50 1015.26 1015.47 1015.42 1015.72 1016.05 1015.58 1015.25 1014.76 1014.96 1015.20 1015.24 1015.86 1016.92 1018.18 1019.35 1020.14 1021.26 1021.73 1022.48 1023.26 1024.14 1024.64 1025.42 1025.71 1026.06 1026.57 1027.04 1027.69 1028.04 1028.68 1029.03 1029.01 1029.51 1029.92 1030.28 1030.39 1030.80 1031.01 1031.01 1031.04
1017.79 1017.54 1016.82 1016.51 1016.32 1015.93 1015.95 1015.51 1015.68 1015.85 1015.95 1015.79 1015.53 1015.09 1014.86 1015.28 1016.69 1018.06 1019.55 1020.38 1021.19 1022.09 1022.84 1023.54 1024.35 1025.19 1026.12 1026.49 1026.70 1027.07 1027.48 1028.07 1028.70 1029.15 1029.39 1029.86 1030.39 1030.62 1030.86 1030.98 1031.04 1031.28 1031.42 1031.49
1018.11 1018.04 1017.47 1017.40 1016.94 1016.73 1016.67 1016.07 1015.91 1015.54 1016.15 1016.21 1016.20 1015.61 1015.22 1015.94 1016.94 1018.10 1019.50 1020.71 1021.70 1022.23 1023.05 1023.96 1024.62 1025.29 1025.96 1026.64 1027.19 1027.56 1028.01 1028.23 1028.86 1029.33 1029.91 1030.27 1031.02 1031.23 1031.39 1031.53 1031.83 1031.75 1031.95 1032.05
1018.38 1018.07 1017.70 1017.66 1017.40 1017.28 1017.10 1016.76 1016.28 1016.11 1015.64 1016.12 1015.93 1015.82 1015.59 1016.18 1017.41 1018.53 1019.50 1020.72 1021.69 1022.43 1023.20 1024.24 1024.96 1025.56 1026.25 1026.88 1027.35 1027.86 1028.26 1028.79 1029.37 1029.78 1030.18 1030.80 1031.37 1031.62 1031.87 1031.87 1032.32 1032.39 1032.24 1032.45
1018.94 1018.33 1017.82 1017.45 1017.21 1017.19 1017.63 1016.88 1016.62 1016.38 1016.22 1016.23 1016.05 1015.87 1016.15 1016.97 1017.92 1018.97 1019.76 1020.50 1021.43 1022.22 1023.07 1024.04 1024.94 1025.52 1026.06 1026.85 1027.46 1027.95 1028.64 1029.19 1029.90 1030.42 1030.74 1031.07 1031.49 1031.87 1032.07 1032.28 1032.45 1032.66 1032.59 1032.72
1019.40 1019.25 1018.85 1018.68 1018.26 1017.79 1017.17 1016.94 1017.02 1016.68 1016.40 1016.36 1016.16 1015.74 1015.70 1016.24 1017.13 1018.45 1019.70 1020.61 1021.20 1021.91 1022.94 1023.73 1024.70 1025.48 1026.05 1026.81 1027.55 1028.23 1028.91 1029.61 1029.90 1030.76 1031.40 1031.49 1031.73 1032.09 1032.57 1032.63 1032.83 1032.83 1032.99 1033.06
1020.11 1019.89 1019.72 1019.47 1018.75 1018.07 1017.50 1017.17 1017.04 1016.98 1016.95 1016.70 1016.09 1015.74 1015.46 1015.88 1017.18 1018.59 1019.52 1020.31 1020.86 1021.51 1022.20 1023.21 1024.35 1025.29 1026.06 1026.57 1027.42 1028.28 1029.09 1029.76 1030.28 1030.65 1031.33 1031.76 1031.95 1032.27 1032.44 1032.71 1032.96 1033.14 1033.19 1033.26
1020.76 1020.42 1020.33 1020.47 1019.77 1019.34 1018.68 1017.21 1016.71 1016.69 1016.27 1015.84 1015.56 1015.36 1015.62 1016.49 1017.20 1017.94 1018.80 1019.37 1019.87 1020.77 1021.58 1022.57 1023.46 1024.76 1025.78 1026.39 1027.29 1028.31 1028.94 1029.84 1030.23 1030.95 1031.45 1031.79 1032.07 1032.07 1032.52 1032.92 1032.99 1033.06 1033.44 1033.47
1021.31 1020.98 1020.88 1021.12 1020.87 1019.82 1017.59 1016.66 1016.21 1016.40 1015.93 1015.62 1015.81 1016.31 1016.34 1016.33 1016.48 1017.06 1017.82 1018.40 1019.20 1020.22 1020.97 1021.78 1022.90 1024.32 1025.41 1026.35 1027.40 1028.26 1029.40 1029.92 1030.51 1031.08 1031.43 1031.86 1032.20 1032.29 1032.54 1032.86 1033.06 1033.41 1033.56 1033.56
1021.55 1021.34 1021.72 1021.98 1021.63 1020.21 1018.16 1017.23 1016.80 1016.57 1015.83 1015.53 1015.98 1016.06 1015.94 1016.21 1016.49 1016.94 1017.28 1017.59 1018.17 1019.00 1019.90 1021.02 1022.04 1023.41 1025.03 1026.40 1027.65 1028.54 1029.51 1030.13 1030.61 1031.05 1031.53 1031.94 1031.92 1032.17 1032.58 1032.97 1033.42 1033.72 1033.49 1033.54
1021.92 1021.64 1021.95 1022.30 1021.94 1020.52 1018.33 1017.07 1016.66 1016.34 1016.29 1015.86 1015.69 1015.80 1016.49 1016.78 1016.65 1016.98 1017.11 1017.66 1018.57 1019.29 1020.32 1021.23 1022.50 1023.98 1025.12 1026.52 1027.49 1028.54 1029.67 1030.49 1030.92 1031.18 1031.43 1031.65 1031.93 1032.32 1032.77 1033.06 1033.35 1033.47 1033.47 1033.46
1022.56 1022.07 1022.37 1022.35 1021.83 1019.83 1017.53 1016.85 1016.59 1016.83 1017.15 1016.14 1015.95 1016.02 1016.34 1016.68 1016.83 1016.89 1017.22 1018.05 1018.68 1019.60 1020.69 1021.92 1022.94 1023.63 1024.85 1026.13 1027.08 1028.27 1029.32 1030.14 1030.84 1031.27 1031.50 1031.77 1032.20 1032.48 1032.65 1033.03 1033.37 1033.35 1033.59 1033.78
1022.63 1022.39 1022.68 1022.56 1021.66 1019.69 1017.48 1017.37 1017.27 1016.89 1016.81 1016.70 1016.66 1016.78 1017.05 1017.37 1017.53 1017.94 1018.45 1019.01 1019.61 1020.61 1021.67 1022.62 1023.28 1024.31 1025.26 1026.07 1027.07 1028.60 1029.33 1029.76 1030.88 1031.38 1031.65 1031.97 1032.32 1032.55 1032.89 1033.08 1033.35 1033.63 1033.91 1033.92
1022.88 1021.75 1021.54 1021.28 1019.64 1018.22 1017.67 1017.47 1016.98 1016.92 1016.98 1017.06 1017.02 1017.02 1017.29 1017.66 1018.06 1018.60 1019.35 1020.27 1021.08 1021.65 1022.49 1023.22 1023.97 1024.93 1025.89 1026.66 1027.49 1028.72 1029.23 1029.76 1030.86 1031.57 1031.88 1032.26 1032.64 1032.80 1033.09 1033.51 1033.76 1033.92 1033.80 1033.80
1022.52 1021.69 1021.45 1020.77 1018.43 1018.10 1017.93 1017.65 1017.48 1017.43 1017.45 1017.44 1017.48 1017.57 1017.81 1018.20 1018.69 1019.54 1020.39 1021.32 1022.04 1022.79 1023.54 1024.19 1024.93 1025.75 1026.65 1027.19 1027.84 1028.44 1029.30 1030.00 1031.00 1031.71 1032.28 1032.66 1032.96 1033.25 1033.48 1033.53 1033.55 1033.54 1033.61 1033.62
1022.95 1022.26 1021.53 1020.63 1018.95 1018.37 1017.71 1017.74 1017.72 1017.81 1018.01 1018.16 1018.23 1018.43 1018.66 1019.08 1019.72 1020.50 1021.47 1022.29 1023.00 1023.72 1024.46 1024.79 1025.29 1026.03 1026.83 1027.53 1028.33 1028.93 1029.60 1030.40 1031.43 1032.08 1032.48 1032.78 1033.04 1033.28 1033.44 1033.46 1033.40 1033.31 1033.31 1033.27
1022.44 1021.30 1021.07 1020.24 1019.01 1018.68 1018.38 1018.27 1018.47 1018.72 1018.87 1019.06 1019.29 1019.38 1019.50 1019.91 1020.53 1021.20 1022.17 1022.73 1023.40 1024.16 1024.83 1025.51 1026.05 1026.54 1027.36 1028.20 1029.07 1029.61 1030.07 1030.66 1031.43 1032.14 1032.55 1032.76 1033.00 1033.21 1033.35 1033.46 1033.40 1032.99 1032.80 1032.63
Wind_Speed
6 7 12 26 17 19 16 19 12 15 3 12 12 15 7 8 7 11 11 12 13 12 6 6 10 10 8 4 7 6 7 7 6 6 6 5 5 6 7 7 10 10 9 10
5 11 4 3 5 11 24 22 27 5 6 6 13 11 2 3 4 9 14 10 11 8 10 10 11 12 11 9 9 9 8 6 5 5 6 5 5 7 7 7 10 10 11 10
14 2 12 2 9 9 20 23 24 14 5 3 13 5 5 5 4 6 9 10 10 13 14 10 11 11 10 11 10 10 10 9 9 10 10 10 9 6 6 7 7 9 11 12
8 7 10 4 5 3 10 10 14 15 17 11 7 9 11 16 7 4 6 13 12 13 9 10 12 11 10 9 10 11 11 10 10 8 8 10 9 9 6 7 6 7 11 11
6 11 11 8 8 2 10 24 18 13 19 13 8 4 5 16 15 7 7 11 12 12 11 11 11 12 10 9 9 9 11 12 12 14 11 10 13 7 7 5 10 8 10 11
7 3 4 5 5 7 11 14 10 7 5 8 8 11 8 9 11 9 8 7 14 15 12 12 11 9 10 9 8 9 12 12 11 14 13 15 12 9 4 7 5 6 6 6
3 1 3 7 5 4 2 7 2 3 4 2 15 10 3 3 5 12 17 12 9 15 11 11 11 9 9 11 10 10 11 13 11 9 12 10 8 8 11 6 5 6 4 3
1 2 2 5 3 5 4 2 3 2 5 5 12 6 3 4 4 17 16 14 12 11 11 11 11 10 11 11 10 11 12 11 9 9 9 7 7 6 6 6 5 2 4 4
2 3 0 2 2 7 8 0 5 3 2 4 4 2 3 6 8 11 16 14 13 12 10 11 10 11 10 10 9 9 9 9 9 9 7 9 7 6 6 6 5 4 4 5
2 3 2 2 3 1 3 9 1 3 3 3 3 1 4 8 9 10 11 12 11 11 12 12 9 10 7 8 8 9 9 9 10 9 7 8 7 7 6 6 6 5 5 6
2 2 3 2 2 3 2 2 4 4 1 2 2 5 2 8 10 13 11 10 12 12 12 11 9 8 7 7 7 8 9 9 8 7 7 8 7 6 6 6 5 5 5 5
3 1 2 2 1 3 2 2 3 3 3 3 1 4 4 1 7 12 12 11 10 10 11 10 9 10 9 8 8 9 8 8 7 7 7 7 6 6 6 6 5 5 6 5
1 3 2 3 2 2 1 1 1 0 3 4 5 3 4 7 8 9 14 12 11 12 12 9 8 8 8 8 8 7 7 7 6 7 7 6 6 6 6 6 5 5 6 5
2 1 2 2 1 3 4 2 2 2 3 2 3 3 2 5 8 9 11 13 14 13 13 10 9 9 9 8 8 8 7 6 6 6 6 7 6 6 5 5 5 5 5 6
3 3 3 2 5 2 1 2 3 2 1 4 4 3 5 11 12 13 11 13 15 16 14 12 10 9 9 9 8 8 6 6 6 7 6 6 6 6 5 5 5 5 5 5
5 1 2 1 4 5 2 4 6 5 3 4 3 5 1 4 9 9 13 16 16 16 17 13 11 11 11 11 9 8 8 7 7 7 7 6 6 5 5 5 5 4 4 4
4 1 3 4 3 4 5 7 7 5 4 4 4 4 3 3 8 14 16 16 16 15 16 15 13 12 11 10 10 10 8 7 7 7 6 6 5 6 5 4 4 4 4 4
2 0 1 2 4 1 7 3 4 6 3 7 2 4 3 5 5 8 7 15 15 15 16 14 13 12 10 9 9 8 8 7 7 7 6 5 5 5 5 5 4 3 2 3
1 2 2 3 2 5 2 2 4 6 7 9 11 6 1 0 2 1 8 13 16 17 15 13 12 12 11 11 9 10 8 6 7 7 7 6 5 5 5 4 4 3 3 3
3 1 2 2 3 6 6 1 2 3 4 2 2 6 7 4 2 4 8 9 8 10 10 11 12 11 12 10 12 11 8 6 6 7 6 5 5 5 5 5 5 3 2 2
1 2 4 1 1 9 8 3 2 7 5 1 2 3 5 4 2 3 3 6 7 8 11 12 13 13 12 13 12 11 10 9 6 5 6 5 4 5 5 4 3 3 2 2
6 5 3 3 3 8 4 4 5 4 1 2 2 2 2 3 3 2 2 6 8 10 11 9 10 10 11 12 12 9 10 7 7 6 6 5 4 3 4 4 2 2 3 3
3 6 5 7 8 1 4 2 2 3 3 2 1 1 1 4 4 4 4 6 6 8 8 6 9 10 8 10 10 11 7 9 7 6 5 4 3 2 3 3 3 2 2 2
4 2 2 1 4 5 5 4 3 4 3 3 2 1 1 3 3 4 5 6 6 6 7 5 10 10 9 8 6 6 8 8 8 6 5 4 4 3 3 2 2 2 2 1
5 3 5 6 8 7 8 7 6 6 3 3 2 1 3 3 3 4 5 6 6 6 5 6 9 9 9 7 6 6 8 8 6 5 4 4 4 4 3 2 2 2 3 3
6 8 6 7 4 1 4 3 3 4 6 6 4 2 1 4 7 6 6 5 6 7 5 5 4 6 6 6 6 5 6 7 7 5 4 4 3 2 2 2 2 4 5 7
Wind_Direction
191 209 212 214 246 319 226 208 200 200 216 178 199 207 216 184 168 172 182 181 182 177 144 132 171 176 154 140 175 176 180 167 147 125 118 89 91 77 67 60 53 52 46 46
223 223 23 199 242 289 285 213 207 199 158 199 191 217 228 285 178 180 181 181 174 136 105 85 81 73 69 83 73 76 75 62 68 101 102 110 108 84 80 66 56 49 51 48
246 266 142 64 48 305 287 220 195 197 146 44 147 198 172 261 245 148 185 173 152 146 132 110 91 79 71 63 61 66 67 64 79 98 106 103 101 83 75 58 61 37 46 49
250 184 153 173 89 14 296 220 204 154 168 180 220 192 203 217 242 147 124 130 127 114 102 108 103 80 70 67 64 68 64 71 63 81 100 97 101 104 86 72 68 59 46 46
239 171 190 204 221 49 281 333 221 169 179 172 200 153 158 185 220 170 162 136 119 114 119 112 98 100 87 73 70 75 77 68 81 81 84 98 97 95 86 107 79 40 56 40
259 124 150 188 149 185 318 299 167 178 147 200 176 193 214 201 193 166 140 155 134 124 124 112 103 99 98 94 86 85 88 84 80 91 102 105 111 109 78 94 75 69 61 53
243 339 193 125 109 90 37 307 151 150 185 154 159 171 251 233 249 175 159 147 136 121 126 130 124 119 113 106 103 103 100 95 90 89 92 94 111 122 115 95 88 89 90 83
186 274 300 168 168 156 112 310 337 234 165 141 149 191 212 11 14 121 129 131 122 121 130 126 126 125 120 112 109 107 104 101 91 92 83 74 80 66 89 87 108 129 82 77
112 243 297 137 197 152 137 246 294 291 21 94 143 98 300 78 76 109 128 134 134 139 121 124 129 120 119 118 107 106 106 94 88 85 88 86 85 94 106 106 87 69 92 93
357 318 32 305 118 301 170 156 98 8 14 58 58 305 218 190 162 144 145 138 136 129 130 130 131 123 117 107 100 92 89 95 98 104 109 97 96 91 89 87 88 83 74 73
81 355 309 278 48 121 121 203 51 107 108 54 92 253 22 189 171 162 163 155 147 144 142 139 131 114 101 89 90 99 103 106 104 101 92 93 91 90 87 87 82 78 78 76
144 261 227 92 27 59 275 302 212 154 186 185 246 278 9 336 172 155 155 146 144 142 144 145 139 135 129 124 121 119 126 117 113 109 107 102 98 93 88 82 78 81 82 68
65 253 164 116 36 51 171 278 35 283 77 204 153 245 20 64 114 147 144 150 152 152 146 142 140 143 137 133 127 121 113 115 111 113 110 104 98 93 93 94 88 81 85 80
202 292 343 102 6 101 179 221 214 110 100 175 249 165 165 146 146 153 158 155 160 161 161 158 159 158 148 141 136 130 129 122 118 110 109 112 111 110 108 105 100 99 99 104
350 345 10 353 337 217 195 188 155 140 199 157 249 205 191 195 185 175 162 159 166 172 173 172 168 159 148 145 143 140 130 134 126 123 120 117 114 111 112 108 107 106 111 111
326 223 135 202 4 11 303 208 181 185 257 277 237 294 193 114 110 143 172 174 178 180 178 176 168 161 163 160 156 148 148 143 141 134 132 132 131 129 123 120 123 121 119 117
318 47 65 272 13 3 340 221 194 189 192 176 216 245 135 129 170 178 184 184 184 186 182 181 172 171 170 167 160 161 151 145 139 137 144 144 141 133 137 140 132 126 132 122
318 133 6 246 18 3 245 297 209 186 233 217 228 225 235 219 204 186 191 183 185 187 184 177 168 167 164 154 148 134 142 149 144 141 144 152 156 143 139 138 130 127 133 151
331 3 68 117 192 274 299 187 146 164 272 213 222 214 105 69 138 209 192 189 191 188 185 181 167 159 154 152 139 137 143 143 144 159 163 168 157 144 145 144 153 169 167 177
306 206 16 96 132 200 237 214 242 156 293 75 174 199 167 186 268 232 190 171 167 174 168 155 152 146 142 139 137 138 149 154 179 174 165 153 149 154 162 162 172 174 180 164
165 172 186 142 245 288 247 262 312 79 244 44 10 7 157 182 244 310 104 145 147 147 142 140 149 153 152 145 145 158 157 181 181 153 146 143 153 165 163 160 162 163 182 180
166 146 189 86 63 290 168 62 161 216 48 114 39 25 156 233 320 346 123 131 130 129 132 145 140 142 146 146 149 163 181 150 147 153 143 144 160 169 150 146 177 184 198 208
243 187 186 180 212 238 232 297 272 169 152 223 299 333 330 277 229 182 142 120 119 126 124 117 129 125 132 148 157 177 161 140 146 147 152 157 166 141 142 163 182 183 192 181
265 171 225 37 278 239 234 240 245 214 209 183 238 278 275 251 176 139 126 124 120 120 127 121 131 143 153 162 156 144 149 138 147 155 162 164 158 167 193 184 182 181 180 197
208 101 191 266 288 291 256 227 231 240 237 188 193 238 265 200 182 143 143 142 138 133 128 144 152 157 161 145 140 138 140 140 148 156 166 176 180 189 189 203 193 207 220 200
191 191 169 220 267 203 288 8 16 247 227 215 206 235 172 180 169 150 160 159 147 149 140 131 120 134 145 143 134 132 138 150 154 163 177 184 173 179 175 181 272 268 265 271